Terminal Aerodrome Forecast
Issued by NWS

Home | Current Version | Previous Version | Text Only | Print | Product List | Glossary On
Versions: 1 2 3 4 5 6 7 8 9 10 11 12 13 14 15 16 17 18 19 20 21 22 23 24 25 26 27 28 29 30 31 32 33 34 35 36 37 38
000
FTAK31 PANC 230043 AAA
TAFAVD
TAF AMD
PAVD 230043Z 2301/2324 24009KT P6SM FEW007 BKN040 BKN090
     FM230900 VRB03KT 1SM BR BKN006
     FM231200 00000KT 1SM BR OVC003
     FM231800 VRB03KT P6SM VCFG BKN015
     FM232100 24006KT P6SM BKN040
      AMD LTD TO CLD VIS AND WIND=

USA.gov is the U.S. government's official web portal to all federal, state and local government web resources and services.